Location: Alafon
(8.4500°N, 4.2333°E)
Time: 14:59:25
(UTC+00:00)

Vanguard 1 Rocket - Pass Details

Date: 24 July 2021
Orbit: 650 x 4226 km, 34.3° (Epoch: 23 September)

Event Time Altitude Azimuth Distance (km) Brightness Sun altitude
Rises 19:02:14 0° 311° (NW) 2,945 11.5 -13.9°
Reaches altitude 10° 19:04:21 10° 315° (NW) 2,064 10.4 -14.4°
Maximum altitude 19:08:45 61° 36° (NE) 868 7.2 -15.4°
Enters shadow 19:12:10 24° 109° (ESE) 1,793 8.3 -16.2°
